| time (UTC) | temp C | wind direction | speed KPH | gust KPH | rain 1hr cm | rain 24hr cm | rain mn cm | humidity % | barometer mb |
| 20260509014534 | 23 | 147 | 1.6 | 3.2 | 0.00 | 0.00 | 0.00 | 25 | 1012.6 |
| 20260509013532 | 23 | 157 | 3.2 | 4.8 | 0.00 | 0.00 | 0.00 | 23 | 1012.6 |
| 20260509012528 | 24 | 154 | 3.2 | 4.8 | 0.00 | 0.00 | 0.00 | 23 | 1012.7 |
| 20260509011526 | 25 | 178 | 3.2 | 6.4 | 0.00 | 0.00 | 0.00 | 22 | 1012.7 |
| 20260509010523 | 25 | 154 | 3.2 | 9.7 | 0.00 | 0.00 | 0.00 | 21 | 1012.8 |
| 20260509005540 | 25 | 149 | 3.2 | 6.4 | 0.00 | 0.00 | 0.00 | 21 | 1012.8 |
| 20260509004538 | 25 | 166 | 3.2 | 6.4 | 0.00 | 0.00 | 0.00 | 20 | 1012.9 |
| 20260509003555 | 25 | 151 | 3.2 | 6.4 | 0.00 | 0.00 | 0.00 | 21 | 1013.0 |
| 20260509002532 | 25 | 173 | 4.8 | 11.3 | 0.00 | 0.00 | 0.00 | 20 | 1013.1 |
| 20260509001530 | 26 | 195 | 3.2 | 4.8 | 0.00 | 0.00 | 0.00 | 20 | 1013.2 |
| 20260509000525 | 25 | 189 | 4.8 | 12.9 | 0.00 | 0.00 | 0.00 | 21 | 1013.3 |
| 20260508235542 | 25 | 219 | 4.8 | 9.7 | 0.00 | 0.00 | 0.00 | 21 | 1013.2 |
| 20260508234540 | 25 | 196 | 4.8 | 11.3 | 0.00 | 0.00 | 0.00 | 21 | 1013.4 |
| 20260508233536 | 26 | 193 | 3.2 | 14.5 | 0.00 | 0.00 | 0.00 | 20 | 1013.4 |
| 20260508232554 | 26 | 202 | 3.2 | 9.7 | 0.00 | 0.00 | 0.00 | 20 | 1013.5 |
| 20260508231551 | 26 | 229 | 6.4 | 11.3 | 0.00 | 0.00 | 0.00 | 20 | 1013.5 |
| 20260508230548 | 25 | 234 | 6.4 | 12.9 | 0.00 | 0.00 | 0.00 | 22 | 1013.4 |
| 20260508225525 | 26 | 214 | 3.2 | 11.3 | 0.00 | 0.00 | 0.00 | 20 | 1013.7 |
| 20260508224543 | 26 | 210 | 3.2 | 6.4 | 0.00 | 0.00 | 0.00 | 20 | 1013.7 |
| 20260508223540 | 26 | 203 | 3.2 | 6.4 | 0.00 | 0.00 | 0.00 | 21 | 1013.9 |
| 20260508222539 | 25 | 23 | 3.2 | 6.4 | 0.00 | 0.00 | 0.00 | 18 | 1014.1 |
| 20260508221535 | 26 | 238 | 6.4 | 12.9 | 0.00 | 0.00 | 0.00 | 20 | 1014.3 |
| 20260508220532 | 25 | 225 | 3.2 | 4.8 | 0.00 | 0.00 | 0.00 | 20 | 1014.6 |
| 20260508215528 | 25 | 261 | 4.8 | 11.3 | 0.00 | 0.00 | 0.00 | 20 | 1014.7 |
| 20260508214525 | 25 | 345 | 3.2 | 9.7 | 0.00 | 0.00 | 0.00 | 21 | 1014.7 |
| 20260508213523 | 25 | 230 | 4.8 | 11.3 | 0.00 | 0.00 | 0.00 | 21 | 1014.8 |
| 20260508212540 | 25 | 238 | 1.6 | 6.4 | 0.00 | 0.00 | 0.00 | 20 | 1015.0 |
| 20260508211537 | 25 | 226 | 6.4 | 11.3 | 0.00 | 0.00 | 0.00 | 21 | 1015.2 |
| 20260508210553 | 25 | 228 | 4.8 | 12.9 | 0.00 | 0.00 | 0.00 | 22 | 1015.2 |
| 20260508205551 | 24 | 226 | 6.4 | 12.9 | 0.00 | 0.00 | 0.00 | 23 | 1015.3 |
| 20260508204528 | 24 | 223 | 3.2 | 12.9 | 0.00 | 0.00 | 0.00 | 24 | 1015.3 |
| 20260508203524 | 24 | 242 | 1.6 | 4.8 | 0.00 | 0.00 | 0.00 | 23 | 1015.5 |
| 20260508202542 | 23 | 299 | 4.8 | 9.7 | 0.00 | 0.00 | 0.00 | 24 | 1015.5 |
| 20260508201538 | 24 | 220 | 6.4 | 12.9 | 0.00 | 0.00 | 0.00 | 27 | 1015.6 |
| 20260508200535 | 25 | 246 | 4.8 | 12.9 | 0.00 | 0.00 | 0.00 | 24 | 1015.8 |
| 20260508195532 | 24 | 31 | 3.2 | 6.4 | 0.00 | 0.00 | 0.00 | 23 | 1015.6 |
| 20260508194529 | 24 | 353 | 3.2 | 9.7 | 0.00 | 0.00 | 0.00 | 24 | 1015.7 |
| 20260508193526 | 24 | 12 | 4.8 | 11.3 | 0.00 | 0.00 | 0.00 | 24 | 1015.8 |
| 20260508192523 | 23 | 291 | 3.2 | 6.4 | 0.00 | 0.00 | 0.00 | 23 | 1015.9 |
| 20260508191540 | 23 | 349 | 4.8 | 9.7 | 0.00 | 0.00 | 0.00 | 26 | 1016.1 |
| 20260508190538 | 23 | 242 | 6.4 | 12.9 | 0.00 | 0.00 | 0.00 | 27 | 1016.0 |
| 20260508185535 | 23 | 214 | 3.2 | 6.4 | 0.00 | 0.00 | 0.00 | 30 | 1016.0 |
| 20260508184532 | 23 | 207 | 6.4 | 11.3 | 0.00 | 0.00 | 0.00 | 29 | 1016.1 |
| 20260508183530 | 22 | 293 | 3.2 | 9.7 | 0.00 | 0.00 | 0.00 | 32 | 1016.2 |
| 20260508182527 | 22 | 213 | 6.4 | 12.9 | 0.00 | 0.00 | 0.00 | 33 | 1016.3 |
| 20260508181524 | 22 | 142 | 4.8 | 9.7 | 0.00 | 0.00 | 0.00 | 33 | 1016.5 |
| 20260508180541 | 22 | 230 | 6.4 | 14.5 | 0.00 | 0.00 | 0.00 | 32 | 1016.5 |
| 20260508175539 | 21 | 260 | 3.2 | 4.8 | 0.00 | 0.00 | 0.00 | 32 | 1016.6 |
| 20260508174536 | 21 | 228 | 6.4 | 12.9 | 0.00 | 0.00 | 0.00 | 34 | 1016.7 |
| 20260508173533 | 21 | 228 | 6.4 | 9.7 | 0.00 | 0.00 | 0.00 | 32 | 1016.7 |
| 20260508172550 | 22 | 247 | 3.2 | 6.4 | 0.00 | 0.00 | 0.00 | 30 | 1016.7 |
| 20260508171528 | 21 | 218 | 3.2 | 6.4 | 0.00 | 0.00 | 0.00 | 32 | 1016.6 |
| 20260508170525 | 21 | 246 | 3.2 | 4.8 | 0.00 | 0.00 | 0.00 | 31 | 1016.6 |
| 20260508165543 | 21 | 199 | 1.6 | 3.2 | 0.00 | 0.00 | 0.00 | 33 | 1016.6 |
| 20260508164600 | 21 | 233 | 1.6 | 3.2 | 0.00 | 0.00 | 0.00 | 34 | 1016.7 |
| 20260508163536 | 21 | 236 | 1.6 | 3.2 | 0.00 | 0.00 | 0.00 | 35 | 1016.8 |
| 20260508162534 | 20 | 196 | 3.2 | 4.8 | 0.00 | 0.00 | 0.00 | 36 | 1016.7 |
| 20260508161551 | 20 | 174 | 1.6 | 3.2 | 0.00 | 0.00 | 0.00 | 37 | 1016.7 |
| 20260508160528 | 19 | 91 | 1.6 | 3.2 | 0.00 | 0.00 | 0.00 | 38 | 1016.6 |
| 20260508155526 | 18 | 81 | 3.2 | 6.4 | 0.00 | 0.00 | 0.00 | 39 | 1016.5 |
| 20260508154523 | 18 | 62 | 4.8 | 6.4 | 0.00 | 0.00 | 0.00 | 40 | 1016.5 |
| 20260508153602 | 18 | 142 | 3.2 | 6.4 | 0.00 | 0.00 | 0.00 | 42 | 1016.4 |
| 20260508152618 | 17 | 129 | 3.2 | 6.4 | 0.00 | 0.00 | 0.00 | 42 | 1016.5 |
| 20260508151535 | 17 | 118 | 3.2 | 4.8 | 0.00 | 0.00 | 0.00 | 43 | 1016.4 |
| 20260508150533 | 16 | 141 | 3.2 | 6.4 | 0.00 | 0.00 | 0.00 | 44 | 1016.5 |
| 20260508145530 | 16 | 88 | 3.2 | 4.8 | 0.00 | 0.00 | 0.00 | 45 | 1016.4 |
| 20260508144527 | 15 | 92 | 3.2 | 6.4 | 0.00 | 0.00 | 0.00 | 46 | 1016.3 |
| 20260508143524 | 15 | 112 | 3.2 | 4.8 | 0.00 | 0.00 | 0.00 | 45 | 1016.3 |
| 20260508142601 | 14 | 125 | 3.2 | 4.8 | 0.00 | 0.00 | 0.00 | 49 | 1016.2 |
| 20260508141539 | 13 | 158 | 1.6 | 3.2 | 0.00 | 0.00 | 0.00 | 51 | 1016.2 |
| 20260508140601 | 12 | 187 | 1.6 | 3.2 | 0.00 | 0.00 | 0.00 | 57 | 1016.1 |
| 20260508135533 | 11 | 170 | 1.6 | 3.2 | 0.00 | 0.00 | 0.00 | 58 | 1015.9 |
| 20260508134530 | 11 | 119 | 1.6 | 3.2 | 0.00 | 0.00 | 0.00 | 57 | 1015.8 |
| 20260508133529 | 11 | 100 | 1.6 | 3.2 | 0.00 | 0.00 | 0.00 | 56 | 1015.6 |
| 20260508132524 | 11 | 153 | 1.6 | 3.2 | 0.00 | 0.00 | 0.00 | 58 | 1015.6 |
| 20260508131542 | 10 | 184 | 0.0 | 1.6 | 0.00 | 0.00 | 0.00 | 59 | 1015.5 |
| 20260508130540 | 8 | 185 | 0.0 | 1.6 | 0.00 | 0.00 | 0.00 | 66 | 1015.3 |
| 20260508125538 | 8 | 163 | 0.0 | 1.6 | 0.00 | 0.00 | 0.00 | 68 | 1015.2 |
| 20260508124534 | 7 | 163 | 0.0 | 0.0 | 0.00 | 0.00 | 0.00 | 73 | 1015.1 |
| 20260508123532 | 7 | 194 | 0.0 | 1.6 | 0.00 | 0.00 | 0.00 | 73 | 1015.1 |
| 20260508122529 | 7 | 160 | 0.0 | 1.6 | 0.00 | 0.00 | 0.00 | 72 | 1015.0 |
| 20260508121606 | 7 | 164 | 1.6 | 1.6 | 0.00 | 0.00 | 0.00 | 73 | 1015.0 |
| 20260508120523 | 7 | 170 | 0.0 | 1.6 | 0.00 | 0.00 | 0.00 | 73 | 1014.8 |
| 20260508115540 | 7 | 194 | 0.0 | 1.6 | 0.00 | 0.00 | 0.00 | 74 | 1014.8 |
| 20260508114538 | 7 | 166 | 1.6 | 3.2 | 0.00 | 0.00 | 0.00 | 73 | 1014.6 |
| 20260508113535 | 8 | 199 | 0.0 | 3.2 | 0.00 | 0.00 | 0.00 | 71 | 1014.5 |
| 20260508112532 | 8 | 129 | 0.0 | 0.0 | 0.00 | 0.00 | 0.00 | 68 | 1014.6 |
| 20260508111529 | 9 | 130 | 1.6 | 1.6 | 0.00 | 0.00 | 0.00 | 68 | 1014.6 |
| 20260508110526 | 9 | 130 | 1.6 | 3.2 | 0.00 | 0.00 | 0.00 | 66 | 1014.5 |
| 20260508105544 | 10 | 130 | 0.0 | 1.6 | 0.00 | 0.00 | 0.00 | 64 | 1014.4 |
| 20260508104622 | 9 | 130 | 1.6 | 1.6 | 0.00 | 0.00 | 0.00 | 64 | 1014.3 |
| 20260508103538 | 10 | 158 | 0.0 | 1.6 | 0.00 | 0.00 | 0.00 | 63 | 1014.3 |
| 20260508102535 | 10 | 158 | 0.0 | 1.6 | 0.00 | 0.00 | 0.00 | 64 | 1014.2 |
| 20260508101532 | 9 | 167 | 1.6 | 1.6 | 0.00 | 0.00 | 0.00 | 65 | 1014.2 |
| 20260508100530 | 9 | 200 | 1.6 | 1.6 | 0.00 | 0.00 | 0.00 | 66 | 1014.1 |
| 20260508095526 | 9 | 201 | 0.0 | 1.6 | 0.00 | 0.00 | 0.00 | 66 | 1014.1 |
| 20260508094523 | 9 | 145 | 0.0 | 1.6 | 0.00 | 0.00 | 0.00 | 66 | 1014.2 |
| 20260508093541 | 8 | 156 | 1.6 | 1.6 | 0.00 | 0.00 | 0.00 | 71 | 1014.0 |
| 20260508092538 | 8 | 160 | 1.6 | 1.6 | 0.00 | 0.00 | 0.00 | 70 | 1014.0 |
| 20260508091535 | 10 | 210 | 3.2 | 6.4 | 0.00 | 0.00 | 0.00 | 67 | 1014.3 |
| 20260508090533 | 10 | 124 | 1.6 | 3.2 | 0.00 | 0.00 | 0.00 | 65 | 1014.0 |
| 20260508085529 | 10 | 114 | 1.6 | 1.6 | 0.00 | 0.00 | 0.00 | 65 | 1014.1 |
| 20260508084527 | 10 | 120 | 1.6 | 3.2 | 0.00 | 0.00 | 0.00 | 65 | 1014.1 |
| 20260508083524 | 10 | 131 | 0.0 | 1.6 | 0.00 | 0.00 | 0.00 | 64 | 1014.1 |
| 20260508082541 | 10 | 130 | 0.0 | 1.6 | 0.00 | 0.00 | 0.00 | 62 | 1014.2 |
| 20260508081558 | 10 | 123 | 1.6 | 1.6 | 0.00 | 0.00 | 0.00 | 63 | 1014.2 |
| 20260508080535 | 10 | 109 | 1.6 | 1.6 | 0.00 | 0.00 | 0.00 | 61 | 1014.2 |
| 20260508075532 | 10 | 142 | 1.6 | 1.6 | 0.00 | 0.00 | 0.00 | 62 | 1014.2 |
| 20260508074529 | 11 | 143 | 0.0 | 1.6 | 0.00 | 0.00 | 0.00 | 60 | 1014.1 |
| 20260508073526 | 11 | 142 | 0.0 | 1.6 | 0.00 | 0.00 | 0.00 | 58 | 1014.1 |
| 20260508072523 | 12 | 142 | 1.6 | 1.6 | 0.00 | 0.00 | 0.00 | 55 | 1014.1 |
| 20260508071540 | 12 | 143 | 1.6 | 3.2 | 0.00 | 0.00 | 0.00 | 55 | 1014.0 |
| 20260508070538 | 12 | 143 | 1.6 | 1.6 | 0.00 | 0.00 | 0.00 | 55 | 1013.9 |
| 20260508065535 | 12 | 143 | 1.6 | 1.6 | 0.00 | 0.00 | 0.00 | 54 | 1014.0 |
| 20260508064553 | 12 | 143 | 1.6 | 1.6 | 0.00 | 0.00 | 0.00 | 55 | 1014.0 |
| 20260508063529 | 12 | 143 | 0.0 | 1.6 | 0.00 | 0.00 | 0.00 | 55 | 1013.9 |
| 20260508062527 | 12 | 143 | 0.0 | 1.6 | 0.00 | 0.00 | 0.00 | 56 | 1013.8 |
| 20260508061546 | 13 | 193 | 1.6 | 1.6 | 0.00 | 0.00 | 0.00 | 56 | 1013.8 |
| 20260508060542 | 13 | 214 | 0.0 | 1.6 | 0.00 | 0.00 | 0.00 | 53 | 1013.7 |
| 20260508055539 | 14 | 231 | 1.6 | 6.4 | 0.00 | 0.00 | 0.00 | 51 | 1013.7 |
| 20260508054539 | 15 | 349 | 0.0 | 0.0 | 0.00 | 0.00 | 0.00 | 49 | 1013.7 |
| 20260508053554 | 14 | 350 | 1.6 | 1.6 | 0.00 | 0.00 | 0.00 | 48 | 1013.7 |
| 20260508052531 | 15 | 0.0 | 0.0 | 0.00 | 0.00 | 0.00 | 48 | 1013.7 | |
| 20260508051528 | 13 | 350 | 1.6 | 1.6 | 0.00 | 0.00 | 0.00 | 51 | 1013.7 |
| 20260508050526 | 14 | 349 | 0.0 | 1.6 | 0.00 | 0.00 | 0.00 | 52 | 1013.6 |
| 20260508045522 | 14 | 349 | 1.6 | 1.6 | 0.00 | 0.00 | 0.00 | 51 | 1013.6 |
| 20260508044540 | 15 | 348 | 1.6 | 1.6 | 0.00 | 0.00 | 0.00 | 48 | 1013.5 |
| 20260508043537 | 15 | 347 | 1.6 | 1.6 | 0.00 | 0.00 | 0.00 | 48 | 1013.5 |
| 20260508042537 | 16 | 90 | 1.6 | 3.2 | 0.00 | 0.00 | 0.00 | 44 | 1013.5 |
| 20260508041551 | 16 | 94 | 1.6 | 1.6 | 0.00 | 0.00 | 0.00 | 43 | 1013.4 |
| 20260508040529 | 16 | 93 | 1.6 | 1.6 | 0.00 | 0.00 | 0.00 | 42 | 1013.2 |
| 20260508035526 | 17 | 93 | 1.6 | 1.6 | 0.00 | 0.00 | 0.00 | 42 | 1013.2 |
| 20260508034522 | 17 | 90 | 1.6 | 3.2 | 0.00 | 0.00 | 0.00 | 42 | 1013.2 |
| 20260508033539 | 16 | 73 | 3.2 | 4.8 | 0.00 | 0.00 | 0.00 | 44 | 1013.0 |
| 20260508032537 | 17 | 231 | 1.6 | 1.6 | 0.00 | 0.00 | 0.00 | 41 | 1012.8 |
| 20260508031534 | 18 | 231 | 0.0 | 1.6 | 0.00 | 0.00 | 0.00 | 40 | 1012.6 |
| 20260508030531 | 18 | 231 | 0.0 | 0.0 | 0.00 | 0.00 | 0.00 | 38 | 1012.5 |
| 20260508025529 | 18 | 231 | 0.0 | 0.0 | 0.00 | 0.00 | 0.00 | 37 | 1012.5 |
| 20260508024525 | 19 | 231 | 0.0 | 0.0 | 0.00 | 0.00 | 0.00 | 38 | 1012.4 |
| 20260508023522 | 20 | 231 | 0.0 | 0.0 | 0.00 | 0.00 | 0.00 | 35 | 1012.4 |
| 20260508022539 | 21 | 231 | 0.0 | 1.6 | 0.00 | 0.00 | 0.00 | 33 | 1012.4 |
| 20260508021557 | 21 | 233 | 1.6 | 3.2 | 0.00 | 0.00 | 0.00 | 33 | 1012.3 |
| 20260508020555 | 21 | 233 | 1.6 | 3.2 | 0.00 | 0.00 | 0.00 | 33 | 1012.3 |
| 20260508015531 | 22 | 232 | 4.8 | 4.8 | 0.00 | 0.00 | 0.00 | 32 | 1012.4 |